EW6088 Weather Reports


Display with metric or nautical units.
time (UTC)temp
F
wind
direction
speed
MPH
gust
MPH
rain 1hr
in
rain 24hr
in
rain mn
in
humidity
%
barometer
mb
20190326180853 44 112 3.0 3.0 0.00 0.12 0.08 86 1019.3
20190326175953 45 112 3.0 3.0 0.00 0.12 0.08 86 1019.3
20190326175053 45 112 3.0 3.0 0.00 0.12 0.08 86 1019.3
20190326174153 46 112 3.0 3.0 0.00 0.12 0.08 86 1019.3
20190326173253 45 112 3.0 3.0 0.00 0.12 0.08 85 1019.3
20190326172353 46 112 3.0 3.0 0.00 0.12 0.08 86 1019.3
20190326171453 45 112 3.0 3.0 0.00 0.12 0.08 86 1019.3
20190326170553 45 112 3.0 3.0 0.00 0.12 0.08 85 1019.3
20190326165653 46 112 3.0 3.0 0.00 0.12 0.08 85 1019.3
20190326164753 47 112 3.0 3.0 0.00 0.12 0.08 84 1019.3
20190326163853 47 112 3.0 3.0 0.00 0.12 0.08 85 1019.3
20190326162953 47 112 3.0 3.0 0.00 0.12 0.08 86 1019.3
20190326162053 46 112 3.0 3.0 0.00 0.12 0.08 87 1019.3
20190326161153 46 112 3.0 3.0 0.00 0.12 0.08 88 1019.3
20190326160253 46 112 3.0 3.0 0.00 0.12 0.08 89 1019.3
20190326155353 46 112 3.0 3.0 0.00 0.12 0.08 89 1019.3
20190326154453 46 112 3.0 3.0 0.00 0.12 0.08 89 1019.3
20190326153553 47 112 3.0 3.0 0.00 0.12 0.08 88 1019.3
20190326152653 47 112 3.0 3.0 0.00 0.12 0.08 89 1019.3
20190326151753 47 112 3.0 3.0 0.00 0.12 0.08 90 1019.3
20190326150853 47 112 3.0 3.0 0.00 0.12 0.08 90 1019.3
20190326145953 47 112 3.0 3.0 0.00 0.12 0.08 89 1019.3
20190326145053 47 112 3.0 3.0 0.00 0.12 0.08 88 1019.3
20190326144153 48 112 3.0 3.0 0.00 0.12 0.08 89 1018.2
20190326143253 49 112 3.0 3.0 0.00 0.12 0.08 87 1018.2
20190326142353 50 112 3.0 3.0 0.00 0.12 0.08 86 1018.2
20190326141453 52 112 3.0 3.0 0.00 0.12 0.08 86 1018.2
20190326140553 49 112 3.0 3.0 0.00 0.12 0.08 88 1018.2
20190326135653 49 112 3.0 3.0 0.00 0.12 0.08 90 1018.2
20190326134753 46 112 3.0 3.0 0.00 0.12 0.08 93 1018.2
20190326133853 45 112 3.0 3.0 0.00 0.12 0.08 94 1018.2
20190326132953 46 112 3.0 3.0 0.00 0.12 0.08 95 1018.2
20190326132053 44 112 3.0 3.0 0.00 0.12 0.08 96 1018.2
20190326131153 43 112 3.0 3.0 0.00 0.12 0.08 97 1018.2
20190326130253 42 112 3.0 3.0 0.00 0.12 0.08 97 1018.2
20190326125353 42 112 3.0 3.0 0.00 0.12 0.08 98 1018.2
20190326124453 42 112 3.0 3.0 0.00 0.12 0.08 98 1017.1
20190326123553 42 112 3.0 3.0 0.00 0.12 0.08 98 1017.1
20190326122653 42 112 3.0 3.0 0.00 0.12 0.08 98 1016.0
20190326121753 42 112 3.0 3.0 0.00 0.12 0.08 98 1016.0
20190326120853 42 112 3.0 3.0 0.00 0.12 0.08 98 1017.1
20190326115953 42 112 3.0 3.0 0.00 0.12 0.08 98 1016.0
20190326115053 42 112 3.0 3.0 0.00 0.12 0.08 98 1016.0
20190326114153 42 112 3.0 3.0 0.00 0.12 0.08 98 1016.0
20190326113253 42 112 3.0 3.0 0.00 0.12 0.08 98 1016.0
20190326112353 42 112 3.0 3.0 0.00 0.12 0.08 98 1016.0
20190326111453 42 112 3.0 3.0 0.00 0.12 0.08 98 1016.0
20190326110553 42 112 3.0 3.0 0.00 0.12 0.08 98 1014.9
20190326105653 42 112 3.0 3.0 0.00 0.12 0.08 98 1014.9
20190326104753 42 112 3.0 3.0 0.00 0.12 0.08 98 1014.9
20190326103853 42 112 3.0 3.0 0.00 0.12 0.08 98 1014.9
20190326102953 42 112 3.0 3.0 0.00 0.12 0.08 98 1014.9
20190326102053 42 112 3.0 3.0 0.00 0.12 0.08 98 1014.9
20190326101153 43 112 3.0 3.0 0.00 0.12 0.08 98 1014.9
20190326100253 43 112 3.0 3.0 0.00 0.12 0.08 97 1014.9
20190326095353 43 112 3.0 3.0 0.00 0.12 0.08 97 1014.9
20190326094453 43 112 3.0 3.0 0.00 0.12 0.08 97 1014.9
20190326093553 43 112 3.0 3.0 0.00 0.12 0.08 97 1014.9
20190326092653 43 112 3.0 3.0 0.00 0.12 0.08 97 1014.9
20190326091753 43 112 3.0 3.0 0.00 0.12 0.08 97 1014.9
20190326090853 44 112 3.0 3.0 0.00 0.12 0.08 97 1013.8
20190326085953 44 112 3.0 3.0 0.00 0.12 0.08 97 1013.8
20190326085053 44 112 3.0 3.0 0.00 0.12 0.08 96 1013.8
20190326084153 44 112 3.0 3.0 0.00 0.12 0.08 96 1013.8
20190326083254 44 112 3.0 3.0 0.00 0.12 0.08 96 1013.8
20190326082353 44 112 3.0 3.0 0.00 0.12 0.08 96 1013.8
20190326081453 44 112 3.0 3.0 0.00 0.12 0.08 96 1013.8
20190326080553 44 112 3.0 3.0 0.00 0.12 0.08 96 1013.8
20190326075653 44 112 3.0 3.0 0.00 0.12 0.08 96 1013.8
20190326074753 44 112 3.0 3.0 0.00 0.12 0.08 95 1013.8
20190326073853 46 112 3.0 3.0 0.00 0.12 0.08 84 1013.8
20190326072953 46 112 3.0 3.0 0.00 0.12 0.08 84 1013.8
20190326072053 46 112 3.0 3.0 0.00 0.12 0.08 84 1013.8
20190326071153 46 112 3.0 3.0 0.00 0.12 0.08 84 1013.8
20190326070253 46 112 3.0 3.0 0.00 0.12 0.08 84 1013.8
20190326065353 46 112 3.0 3.0 0.00 0.12 0.08 84 1013.8
20190326064453 46 112 3.0 3.0 0.00 0.12 0.08 84 1013.8
20190326063553 46 112 3.0 3.0 0.00 0.12 0.08 84 1013.8
20190326062653 46 112 3.0 3.0 0.00 0.12 0.08 84 1013.8
20190326061753 46 112 3.0 3.0 0.00 0.12 0.08 84 1013.8
20190326060853 46 112 3.0 3.0 0.04 0.12 0.08 84 1013.8
20190326055953 46 112 3.0 3.0 0.04 0.12 0.08 84 1013.8
20190326055053 46 112 3.0 3.0 0.08 0.12 0.08 84 1013.8
20190326054153 46 112 3.0 3.0 0.08 0.12 0.08 84 1013.8
20190326053253 46 112 3.0 3.0 0.08 0.12 0.08 84 1013.8
20190326052353 46 112 3.0 3.0 0.08 0.12 0.08 84 1013.8
20190326051453 46 112 3.0 3.0 0.04 0.08 0.08 84 1013.8
20190326050553 46 112 3.0 3.0 0.04 0.08 0.04 84 1013.8
20190326045653 46 112 3.0 3.0 0.00 0.04 0.00 82 1013.8
20190326044753 46 112 3.0 3.0 0.00 0.04 0.00 81 1013.8
20190326043853 46 112 3.0 3.0 0.00 0.04 0.00 81 1013.8
20190326042954 46 112 3.0 3.0 0.00 0.04 0.00 81 1013.8
20190326042053 46 112 3.0 3.0 0.00 0.04 0.00 81 1013.8
20190326041153 46 112 3.0 3.0 0.00 0.04 0.00 82 1013.8
20190326040253 46 112 3.0 3.0 0.00 0.04 0.00 81 1013.8
20190326035353 46 112 3.0 3.0 0.00 0.04 0.04 81 1013.8
20190326034453 46 112 3.0 3.0 0.00 0.04 0.04 81 1013.8
20190326033553 46 112 3.0 3.0 0.00 0.04 0.04 82 1013.8
20190326032653 46 112 3.0 3.0 0.00 0.04 0.04 81 1013.8
20190326031753 46 112 3.0 3.0 0.00 0.04 0.04 81 1013.8
20190326030853 46 112 3.0 3.0 0.00 0.04 0.04 81 1013.8
20190326025953 46 112 3.0 3.0 0.00 0.04 0.04 81 1013.8
20190326025053 46 112 3.0 3.0 0.00 0.04 0.04 81 1013.8
20190326024153 46 112 3.0 3.0 0.00 0.04 0.04 81 1013.8
20190326023253 45 112 3.0 3.0 0.00 0.04 0.04 81 1013.8
20190326022353 45 112 3.0 3.0 0.00 0.04 0.04 81 1013.8
20190326021453 45 112 3.0 3.0 0.00 0.04 0.04 81 1013.8
20190326020553 45 112 3.0 3.0 0.00 0.04 0.04 81 1013.8
20190326015653 45 112 3.0 3.0 0.00 0.04 0.04 81 1013.8
20190326014753 45 112 3.0 3.0 0.00 0.04 0.04 80 1013.8
20190326013853 46 112 3.0 3.0 0.00 0.04 0.04 80 1013.8
20190326012953 46 112 3.0 3.0 0.00 0.04 0.04 79 1013.8
20190326012053 46 112 3.0 3.0 0.00 0.04 0.04 78 1013.8
20190326011153 46 112 3.0 3.0 0.00 0.04 0.04 78 1013.8
20190326010253 46 112 3.0 3.0 0.00 0.04 0.04 77 1013.8
20190326005353 47 112 3.0 3.0 0.00 0.04 0.04 76 1012.7
20190326004453 48 112 3.0 3.0 0.00 0.04 0.04 76 1012.7
20190326003553 48 112 3.0 3.0 0.00 0.04 0.04 76 1012.7
20190326002653 48 112 3.0 3.0 0.00 0.04 0.04 76 1012.7
20190326001753 49 112 3.0 3.0 0.00 0.04 0.04 75 1012.7
20190326000853 49 112 3.0 3.0 0.00 0.04 0.04 75 1012.7
20190325235953 48 112 3.0 3.0 0.00 0.04 0.04 75 1013.8
20190325235053 48 112 3.0 3.0 0.00 0.04 0.04 75 1013.8
20190325234153 49 112 3.0 3.0 0.00 0.04 0.04 74 1013.8
20190325233253 50 112 3.0 3.0 0.00 0.04 0.04 74 1013.8
20190325232353 50 112 3.0 3.0 0.00 0.04 0.04 73 1013.8
20190325231453 51 112 3.0 3.0 0.00 0.04 0.04 73 1013.8
20190325230553 50 112 3.0 3.0 0.00 0.04 0.04 73 1013.8
20190325225653 50 112 3.0 3.0 0.00 0.04 0.04 73 1013.8
20190325224753 50 112 3.0 3.0 0.00 0.04 0.04 73 1013.8
20190325223853 50 112 3.0 3.0 0.00 0.04 0.04 72 1013.8
20190325222953 50 112 3.0 3.0 0.00 0.04 0.04 71 1013.8
20190325222053 51 112 3.0 3.0 0.00 0.04 0.04 71 1013.8
20190325221153 52 112 3.0 3.0 0.00 0.04 0.04 70 1012.7
20190325220253 52 112 3.0 3.0 0.00 0.04 0.04 70 1012.7
20190325215353 52 112 3.0 3.0 0.04 0.04 0.04 69 1013.8
20190325214453 53 112 3.0 3.0 0.04 0.04 0.04 69 1013.8
20190325213553 53 112 3.0 3.0 0.04 0.04 0.04 68 1013.8
20190325212653 53 112 3.0 3.0 0.04 0.04 0.04 68 1013.8
20190325211753 52 112 3.0 3.0 0.04 0.04 0.04 68 1013.8
20190325210853 52 112 3.0 3.0 0.04 0.04 0.04 67 1013.8
20190325205953 53 112 3.0 3.0 0.04 0.04 0.04 66 1013.8
20190325205053 53 112 3.0 3.0 0.00 0.00 0.00 65 1013.8
20190325204153 54 112 3.0 3.0 0.00 0.00 0.00 63 1013.8
20190325203253 54 112 3.0 3.0 0.00 0.00 0.00 62 1013.8
20190325202353 55 112 3.0 3.0 0.00 0.00 0.00 60 1013.8
20190325201453 55 112 3.0 3.0 0.00 0.00 0.00 61 1013.8
20190325200553 54 112 3.0 3.0 0.00 0.00 0.00 60 1013.8
20190325195653 54 112 3.0 3.0 0.00 0.00 0.00 59 1013.8
20190325194753 54 112 3.0 3.0 0.00 0.00 0.00 60 1013.8
20190325193853 54 112 3.0 3.0 0.00 0.00 0.00 59 1013.8
20190325192953 55 112 3.0 3.0 0.00 0.00 0.00 56 1013.8
20190325192053 57 112 3.0 3.0 0.00 0.00 0.00 54 1013.8
20190325191153 57 112 3.0 3.0 0.00 0.00 0.00 54 1013.8
20190325190253 57 112 3.0 3.0 0.00 0.00 0.00 54 1013.8
20190325185353 57 112 3.0 3.0 0.00 0.00 0.00 55 1013.8
20190325184453 57 112 3.0 3.0 0.00 0.00 0.00 55 1014.9
20190325183553 57 112 3.0 3.0 0.00 0.00 0.00 54 1014.9
20190325182653 56 112 3.0 3.0 0.00 0.00 0.00 53 1014.9
20190325181753 55 112 3.0 3.0 0.00 0.00 0.00 51 1014.9